Location: Holcomb Observatory and Planetarium
(39.8415°N, 86.1714°W)
Time: 17:15:37
(UTC-04:00)

ISS - Visible Passes

Search period start: 24 May 2015 00:00
Search period end: 03 June 2015 00:00
Orbit: 399 x 404 km, 51.6° (Epoch: 24 May)

Date Brightness Start Highest point End Pass type
(mag) Time Alt. Az. Time Alt. Az. Time Alt. Az.
24 May -0.9 03:29:12 18° NNW 03:29:33 18° NNW 03:31:54 10° NNE visible
24 May -0.1 05:06:14 10° NNW 05:06:59 11° N 05:07:43 10° NNE visible
25 May -0.5 02:37:37 19° NNE 02:37:37 19° NNE 02:38:57 10° NNE visible
25 May -0.2 04:12:20 10° NNW 04:13:26 11° N 04:14:30 10° NNE visible
25 May -0.3 05:49:15 10° NNW 05:50:57 13° NNE 05:52:41 10° NE visible
26 May -0.3 03:18:30 11° NW 03:19:53 13° NNW 03:21:31 10° NNE visible
26 May -0.1 04:56:17 10° NNW 04:57:24 11° N 04:58:32 10° NNE visible
27 May -0.4 02:26:45 17° N 02:26:45 17° N 02:28:35 10° NNE visible
27 May 0.0 04:03:05 10° NNW 04:03:49 11° N 04:04:33 10° NNE visible
27 May -0.4 05:38:51 10° NNW 05:41:14 19° NNE 05:43:40 10° ENE visible
28 May -0.2 01:34:50 14° NNE 01:34:50 14° NNE 01:35:36 10° NNE visible
28 May 0.0 03:09:15 10° NNW 03:10:13 11° N 03:11:09 10° NNE visible
28 May -0.2 04:45:53 10° NNW 04:47:44 14° NNE 04:49:35 10° NE visible
29 May -0.1 02:15:12 10° NW 02:16:37 13° NNW 02:18:07 10° NNE visible
29 May 0.0 03:52:54 10° NNW 03:54:08 12° N 03:55:24 10° NNE visible
29 May -1.2 05:28:25 10° NW 05:31:22 30° NNE 05:34:19 10° E visible
30 May -0.3 01:22:25 15° NNW 01:23:02 16° NNW 01:25:07 10° NNE visible
30 May 0.2 02:59:45 10° N 03:00:30 11° N 03:01:17 10° NNE visible
30 May -0.5 04:35:23 10° NNW 04:37:54 20° NNE 04:40:26 10° ENE visible
30 May -3.4 22:49:42 10° SW 22:52:53 55° SE 22:56:04 10° ENE visible
31 May -0.7 00:26:54 10° WNW 00:29:30 22° NNW 00:32:06 10° NNE visible
31 May 0.3 02:06:01 10° NNW 02:06:52 11° N 02:07:42 10° N visible
31 May 0.0 03:42:23 10° NNW 03:44:21 15° NNE 03:46:21 10° NE visible
31 May -2.8 05:18:03 10° NW 05:21:18 62° NE 05:24:32 10° ESE visible
31 May -2.4 21:56:55 10° SSW 21:59:41 26° SE 22:02:29 10° ENE visible
31 May -1.5 23:33:02 10° W 23:36:02 33° NNW 23:39:02 10° NE visible
01 Jun 0.2 01:11:51 10° NW 01:13:13 12° N 01:14:34 10° NNE visible
01 Jun 0.2 02:49:22 10° NNW 02:50:44 12° N 02:52:09 10° NE visible
01 Jun -1.5 04:24:53 10° NW 04:27:54 34° NNE 04:30:56 10° E visible
01 Jun -2.8 22:39:25 10° WSW 22:42:38 60° NW 22:45:51 10° NE visible
02 Jun 0.0 00:17:37 10° NW 00:19:35 15° NNW 00:21:31 10° NNE visible
02 Jun 0.4 01:56:14 10° N 01:57:04 11° N 01:57:55 10° NNE visible
02 Jun -0.7 03:31:48 10° NNW 03:34:25 22° NNE 03:37:04 10° ENE visible
02 Jun -3.3 05:07:50 10° WNW 05:11:02 54° SW 05:14:13 10° SE visible
02 Jun -3.4 21:46:05 10° SW 21:49:18 67° SE 21:52:32 10° ENE visible
02 Jun -0.5 23:23:29 10° WNW 23:25:59 20° NNW 23:28:28 10° NNE visible
